Wind_Speed
146 147 148 148 146 143 140 137 134 129 125 124 125 126 125 124 124 124 123 121 119 118 117 116 117 117 118 119 120 120 120 121 120 119 118 115 112 110 109 110 110 111
147 148 149 150 151 150 147 143 140 138 133 129 126 127 128 128 127 126 126 125 123 122 121 120 120 120 121 121 122 122 122 122 122 121 121 119 117 114 113 112 112 112
147 148 149 150 151 153 153 151 147 143 141 137 132 129 129 130 130 130 129 129 128 127 125 124 124 123 123 124 124 125 125 124 123 122 122 121 120 119 117 116 115 114
146 148 149 151 152 153 154 155 153 149 146 145 141 136 133 131 132 132 132 131 131 131 130 130 129 128 127 127 126 126 126 125 124 123 122 123 123 122 121 120 120 119
145 147 148 150 151 153 154 155 156 154 151 149 148 145 141 137 134 134 134 133 132 133 133 133 133 132 132 131 130 128 127 126 124 123 123 124 125 125 124 123 123 123
143 145 147 149 150 152 153 154 155 156 156 154 152 150 149 146 142 139 137 136 134 133 134 134 135 135 135 135 133 132 130 128 126 125 124 124 125 127 127 126 126 126
141 143 145 148 149 151 152 154 155 156 157 157 156 155 153 152 150 147 144 142 140 137 135 135 135 136 137 137 137 135 134 132 131 129 127 126 126 126 127 128 128 128
139 141 143 145 148 149 151 153 154 155 157 157 158 159 158 157 155 153 151 150 148 145 142 139 137 136 136 137 139 138 137 137 136 134 132 130 129 128 128 129 129 130
137 139 141 143 145 147 150 151 153 154 156 157 158 159 161 161 160 159 157 155 153 152 149 147 144 141 139 138 139 139 139 139 139 139 138 137 135 133 132 132 132 132
136 138 139 141 143 146 148 150 152 153 155 156 157 158 159 161 163 163 162 160 157 155 154 153 151 149 146 143 141 140 140 140 140 140 140 140 139 138 137 136 135 135
135 137 138 140 142 144 146 148 150 152 153 155 156 158 158 159 161 163 165 165 163 160 157 156 155 154 153 150 146 144 142 141 141 141 141 141 140 140 139 138 137 137
134 135 137 139 140 142 144 146 148 150 152 154 155 157 158 159 159 161 163 165 166 165 163 159 158 157 157 156 153 150 147 145 144 143 142 142 141 140 140 139 139 138
133 135 136 138 139 141 142 144 146 148 150 152 154 155 157 158 159 160 161 162 165 166 167 165 162 160 159 159 159 157 154 151 149 147 146 145 144 143 142 141 140 140
134 135 136 137 138 140 141 143 145 147 148 150 152 154 156 157 159 160 160 161 162 164 166 167 167 165 162 161 161 161 160 158 155 153 151 150 148 147 146 144 143 142
136 136 137 137 138 139 140 142 143 145 147 149 150 152 154 156 157 159 160 161 162 162 164 166 167 168 166 164 163 163 163 162 161 159 158 156 154 152 151 149 148 147
137 138 138 139 139 139 140 141 143 144 145 147 149 150 152 154 156 157 159 160 161 162 163 164 165 167 168 167 166 165 165 164 164 163 162 161 160 159 157 156 154 153
139 139 140 140 141 141 141 142 143 144 145 146 147 149 150 152 154 155 157 159 160 161 162 163 164 166 167 168 168 167 167 167 166 165 164 164 164 164 163 162 161 161
142 141 141 142 142 143 143 143 144 144 145 145 146 148 149 150 152 154 155 157 158 160 161 162 163 165 166 167 168 168 168 168 168 168 167 166 165 165 166 166 166 166
144 144 144 144 144 144 144 145 145 146 146 146 147 147 148 149 150 152 153 155 156 158 159 160 162 163 165 166 166 167 168 168 169 169 169 169 168 167 167 167 167 167
145 146 146 146 146 146 146 146 147 147 147 147 148 148 148 149 150 151 152 153 154 156 157 158 160 162 163 164 165 166 167 167 168 168 169 170 170 170 169 168 168 168
146 147 147 148 148 148 148 148 148 148 148 149 149 149 149 149 150 150 151 152 153 154 155 156 158 160 161 163 164 165 166 166 166 167 167 168 169 170 170 170 170 170
145 146 147 148 149 150 150 150 150 150 150 150 150 150 150 151 151 151 151 152 152 153 153 154 156 158 159 161 162 163 164 165 165 165 166 166 167 168 169 170 171 171
143 144 146 147 149 150 151 151 152 152 152 152 151 151 151 151 152 152 152 152 152 153 153 153 154 156 157 159 160 161 162 163 163 164 164 164 165 166 167 168 169 171
142 143 144 146 147 149 150 151 152 153 153 153 153 153 153 153 153 153 153 153 153 153 153 153 153 155 156 157 158 160 160 161 161 162 162 162 163 164 165 166 167 168
141 142 143 144 145 147 148 149 151 152 153 153 154 154 154 154 154 154 154 154 154 154 154 154 154 154 156 157 158 158 159 159 159 160 160 160 161 162 163 163 164 165
139 141 142 143 144 145 146 147 149 150 151 152 153 154 154 155 155 155 155 155 155 155 155 155 154 155 156 157 157 158 158 158 158 158 158 159 159 160 160 161 161 162
Wind_Direction
232 232 232 233 233 232 232 232 232 233 233 233 234 235 235 236 236 237 238 238 239 239 240 241 242 243 244 246 248 250 251 252 254 255 255 255 255 255 255 256 257 258
233 233 233 233 233 233 233 233 233 233 233 234 234 234 235 236 236 237 237 238 238 239 240 241 242 243 244 245 247 248 250 251 253 254 255 255 254 254 254 255 256 257
234 234 234 234 234 234 234 235 235 234 234 234 234 234 235 236 236 237 237 238 239 239 239 240 241 243 244 245 246 247 248 250 251 252 253 254 254 254 254 254 255 255
235 235 235 235 235 234 235 235 236 235 235 234 234 234 234 235 236 236 237 238 239 239 239 240 241 242 243 245 246 247 248 249 249 250 251 252 253 254 254 255 255 255
236 235 235 235 236 235 235 235 236 236 236 235 235 235 235 235 235 236 236 237 238 239 240 240 241 242 243 244 245 246 247 248 248 248 249 250 252 253 254 255 255 256
236 236 236 236 236 236 236 236 236 236 236 236 236 236 236 236 236 236 236 237 237 238 239 240 241 242 242 243 244 245 246 246 247 247 247 249 250 252 253 254 255 255
237 237 237 237 237 237 237 237 237 237 237 237 237 236 236 237 237 237 237 237 238 238 239 240 241 242 243 243 244 245 245 246 246 246 246 247 249 250 252 253 254 255
237 237 237 237 237 237 237 238 238 238 238 237 238 237 237 237 237 238 238 239 239 239 239 239 240 242 243 244 244 245 246 246 246 246 246 247 248 249 250 252 253 254
238 238 238 238 238 238 238 238 238 239 239 238 238 238 238 238 238 238 239 239 240 240 240 240 240 241 242 243 244 245 246 246 246 246 247 247 248 249 250 251 252 253
239 238 238 238 238 238 238 238 238 239 239 239 239 239 239 239 239 239 239 240 240 240 241 241 241 241 241 242 243 244 245 246 246 246 247 248 248 249 250 250 251 252
239 239 239 239 238 238 238 239 239 239 239 239 240 240 240 240 240 240 241 241 241 241 241 241 242 242 242 242 242 243 244 245 245 246 247 247 248 249 250 250 251 252
240 240 240 240 239 239 239 239 239 239 239 239 240 240 241 241 241 241 241 242 242 242 242 241 241 242 242 243 243 243 243 244 244 245 246 247 248 249 250 250 251 252
240 240 240 240 240 240 240 240 240 240 240 240 240 240 241 241 241 242 242 242 242 243 243 243 243 242 242 243 243 244 244 244 244 245 245 246 247 248 249 250 251 252
241 241 241 241 241 241 241 241 240 240 240 240 240 240 241 241 241 242 242 242 243 243 243 244 244 244 243 243 243 243 244 245 245 245 245 246 246 247 248 249 250 251
241 241 241 241 241 241 241 241 241 241 241 241 241 241 241 241 241 242 242 243 243 243 244 244 245 245 245 245 244 243 244 244 245 246 246 246 247 247 247 248 249 250
241 241 241 241 241 241 242 242 242 242 242 242 242 241 241 241 242 242 242 243 243 243 244 244 245 245 246 246 246 245 245 245 245 246 246 247 247 247 248 248 249 250
241 241 241 242 242 242 242 242 242 242 242 242 242 242 242 242 242 242 242 243 243 243 244 244 245 245 245 246 246 246 247 247 246 246 246 247 247 248 248 249 249 250
242 242 242 242 242 242 242 242 242 242 242 243 243 243 243 243 243 243 243 243 243 243 244 244 245 245 245 246 246 247 247 247 248 248 248 248 248 248 248 249 249 250
242 242 242 242 242 242 242 243 243 243 243 243 243 243 243 243 244 244 244 244 244 244 244 244 245 245 246 246 246 246 247 247 248 248 249 249 249 249 249 249 249 250
243 243 243 243 243 243 243 243 243 243 243 243 243 243 243 243 244 244 244 244 244 244 244 245 245 245 246 246 246 246 247 247 247 248 248 249 250 250 250 250 251 251
243 243 243 243 243 243 243 243 243 243 243 244 244 244 244 244 244 244 244 245 245 245 245 245 246 246 246 246 246 247 247 247 247 247 248 249 249 250 250 251 251 252
244 244 244 243 243 243 244 244 244 244 244 244 244 244 244 244 245 245 245 245 245 245 245 246 246 246 247 247 247 247 247 247 248 248 248 248 249 250 250 250 251 252
245 245 245 245 244 244 244 244 244 244 244 244 244 244 245 245 245 245 245 245 246 246 246 246 246 247 247 247 247 247 248 248 248 248 248 249 249 250 250 250 251 251
246 245 245 245 245 245 245 245 245 245 245 245 245 245 245 245 245 245 246 246 246 246 246 246 246 247 247 248 248 248 248 248 248 248 249 249 249 250 250 251 251 252
246 246 246 246 245 245 245 245 245 245 245 245 245 245 245 246 246 246 246 246 246 247 247 247 247 247 248 248 248 248 248 248 248 249 249 249 249 250 250 251 251 252
246 246 246 246 246 246 246 246 246 246 246 246 246 246 246 246 246 246 246 246 247 247 247 247 247 248 248 249 249 249 249 249 249 249 249 249 250 250 250 251 251 252
Height
10516 10521 10526 10530 10535 10540 10545 10550 10554 10558 10562 10565 10569 10573 10577 10581 10584 10588 10591 10594 10596 10597 10599 10601 10604 10606 10607 10608 10611 10613 10616 10618 10619 10622 10624 10627 10629 10631 10633 10634 10635 10635
10499 10505 10510 10515 10520 10525 10530 10535 10540 10544 10548 10552 10556 10559 10563 10567 10571 10575 10578 10581 10584 10585 10587 10589 10591 10593 10595 10597 10599 10602 10604 10606 10608 10610 10612 10615 10617 10620 10622 10623 10624 10624
10482 10488 10493 10499 10504 10509 10513 10518 10524 10529 10533 10538 10542 10545 10549 10553 10556 10560 10564 10567 10570 10573 10575 10577 10579 10581 10583 10585 10587 10590 10593 10595 10597 10599 10600 10602 10604 10607 10610 10612 10613 10614
10464 10470 10476 10481 10487 10492 10497 10502 10507 10513 10518 10522 10527 10531 10535 10538 10542 10546 10549 10553 10556 10559 10562 10564 10567 10569 10571 10573 10575 10578 10581 10583 10586 10588 10589 10589 10591 10595 10597 10600 10602 10603
10447 10453 10458 10464 10470 10475 10480 10486 10490 10496 10501 10506 10511 10515 10520 10524 10527 10531 10534 10538 10542 10545 10548 10551 10554 10556 10558 10561 10563 10565 10568 10571 10574 10577 10579 10578 10579 10581 10584 10588 10590 10591
10431 10436 10442 10447 10453 10458 10463 10468 10473 10479 10484 10489 10495 10499 10504 10508 10512 10516 10519 10523 10527 10530 10534 10537 10540 10543 10545 10548 10551 10553 10556 10558 10561 10564 10567 10567 10568 10569 10571 10575 10578 10579
10414 10420 10425 10430 10436 10441 10446 10451 10456 10462 10467 10472 10477 10483 10488 10492 10496 10500 10504 10508 10512 10515 10519 10523 10526 10529 10531 10534 10537 10540 10543 10546 10549 10552 10554 10555 10556 10557 10559 10561 10564 10566
10397 10403 10408 10413 10419 10424 10429 10434 10439 10444 10450 10455 10460 10465 10470 10475 10479 10484 10488 10492 10496 10500 10504 10508 10511 10515 10517 10520 10523 10526 10529 10533 10536 10539 10541 10543 10544 10545 10547 10549 10551 10553
10380 10385 10390 10396 10401 10406 10411 10416 10422 10427 10432 10438 10443 10448 10453 10457 10462 10466 10471 10475 10480 10484 10488 10492 10496 10500 10503 10506 10508 10511 10515 10518 10522 10525 10527 10530 10532 10533 10535 10537 10539 10541
10362 10368 10373 10378 10383 10388 10393 10398 10404 10409 10414 10420 10425 10431 10436 10440 10444 10449 10453 10458 10463 10467 10472 10476 10480 10484 10488 10491 10494 10497 10500 10503 10507 10510 10513 10515 10518 10520 10522 10524 10527 10528
10346 10350 10355 10360 10365 10370 10375 10380 10386 10391 10396 10402 10407 10412 10417 10422 10427 10431 10435 10440 10445 10450 10455 10459 10464 10468 10472 10476 10479 10482 10485 10488 10492 10495 10498 10500 10503 10505 10508 10510 10513 10515
10329 10334 10338 10343 10348 10353 10358 10363 10368 10373 10378 10383 10388 10393 10398 10404 10409 10414 10418 10422 10426 10431 10436 10441 10447 10451 10455 10459 10463 10467 10470 10474 10477 10481 10483 10486 10488 10490 10493 10496 10499 10501
10312 10317 10322 10326 10331 10336 10340 10345 10350 10355 10360 10365 10370 10375 10380 10385 10390 10395 10400 10405 10408 10413 10417 10422 10428 10433 10438 10442 10446 10450 10454 10458 10462 10465 10468 10471 10473 10476 10478 10481 10484 10486
10295 10300 10304 10309 10313 10318 10323 10327 10332 10337 10342 10347 10352 10357 10362 10367 10372 10376 10381 10386 10391 10395 10399 10403 10408 10413 10419 10424 10428 10432 10437 10441 10445 10449 10452 10455 10458 10461 10463 10466 10468 10471
10278 10282 10286 10291 10295 10300 10304 10309 10314 10319 10324 10329 10334 10339 10344 10349 10354 10358 10363 10368 10372 10377 10381 10385 10389 10393 10399 10405 10409 10414 10419 10423 10427 10431 10435 10439 10442 10445 10448 10451 10453 10456
10260 10264 10268 10273 10277 10282 10286 10291 10295 10300 10305 10310 10315 10320 10325 10330 10335 10340 10344 10349 10354 10358 10363 10367 10371 10375 10380 10385 10390 10395 10400 10405 10410 10414 10418 10422 10425 10428 10431 10435 10438 10440
10242 10246 10250 10254 10259 10263 10267 10272 10276 10281 10286 10291 10296 10301 10306 10311 10316 10320 10325 10330 10335 10340 10344 10349 10353 10356 10361 10366 10371 10376 10381 10386 10391 10395 10400 10405 10408 10411 10414 10417 10421 10424
10224 10228 10232 10236 10240 10245 10249 10253 10257 10262 10267 10272 10277 10282 10287 10292 10296 10301 10306 10311 10316 10321 10325 10330 10334 10337 10341 10347 10352 10357 10363 10368 10372 10376 10381 10386 10391 10395 10397 10400 10403 10407
10205 10209 10214 10218 10222 10226 10230 10234 10239 10243 10247 10252 10257 10262 10267 10272 10276 10281 10286 10291 10297 10302 10306 10311 10314 10317 10321 10327 10333 10338 10344 10350 10355 10358 10362 10367 10372 10377 10380 10383 10386 10389
10186 10190 10195 10199 10203 10207 10212 10216 10220 10224 10229 10233 10238 10243 10248 10252 10257 10261 10266 10271 10277 10282 10288 10292 10294 10297 10301 10306 10312 10317 10323 10330 10336 10341 10344 10348 10353 10357 10362 10365 10368 10371
10166 10171 10175 10179 10183 10188 10192 10197 10201 10205 10210 10214 10219 10224 10228 10233 10237 10242 10247 10252 10257 10263 10268 10273 10275 10277 10281 10285 10291 10296 10302 10309 10316 10322 10326 10330 10334 10338 10342 10346 10349 10353
10146 10151 10155 10160 10164 10168 10173 10177 10181 10186 10190 10195 10200 10205 10210 10214 10219 10223 10228 10233 10238 10243 10249 10254 10256 10257 10260 10265 10270 10275 10281 10288 10295 10302 10308 10312 10316 10319 10323 10327 10331 10334
10125 10131 10135 10140 10144 10149 10153 10157 10162 10166 10171 10175 10181 10186 10191 10195 10200 10204 10209 10214 10219 10223 10229 10236 10239 10238 10240 10245 10250 10254 10260 10268 10275 10282 10288 10294 10298 10300 10303 10308 10312 10315
10104 10109 10114 10119 10124 10128 10133 10137 10142 10147 10151 10156 10162 10167 10172 10176 10180 10186 10191 10195 10200 10205 10209 10216 10222 10221 10220 10225 10230 10233 10239 10247 10255 10262 10269 10275 10279 10281 10284 10288 10293 10297
10082 10088 10093 10098 10102 10107 10112 10117 10122 10127 10132 10136 10142 10148 10153 10157 10161 10167 10173 10176 10180 10185 10190 10196 10203 10204 10202 10204 10209 10213 10217 10226 10234 10241 10249 10256 10259 10262 10266 10270 10274 10279
10061 10066 10071 10076 10081 10085 10090 10095 10101 10106 10111 10116 10122 10128 10134 10138 10142 10147 10153 10159 10161 10165 10172 10177 10182 10187 10186 10185 10189 10194 10197 10204 10213 10222 10229 10235 10238 10242 10249 10254 10257 10260